Location: Unspecified
(50.0077°N, 36.2988°E)
Time: 04:25:14
(UTC+00:00)

X-37B - Pass Details

Date: 21 September 2020
Orbit: 382 x 392 km, 45.0° (Epoch: 15 October)

Event Time Altitude Azimuth Distance (km) Brightness Sun altitude
Exits shadow 00:37:29 11° 114° (ESE) 1,354 3.7 -25.3°
Drops below altitude 10° 00:37:36 10° 113° (ESE) 1,398 3.8 -25.3°
Sets 00:39:47 0° 103° (ESE) 2,257 5.0 -25.0°
